FW1542 Weather Reports


time (UTC)temp
C
wind
direction
speed
KPH
gust
KPH
rain 1hr
cm
rain 24hr
cm
rain mn
cm
humidity
%
barometer
mb
20260504081545 17 216 4.8 16.1 0.00 0.00 0.00 79 1015.0
20260504081533 17 216 6.4 14.5 0.00 0.00 0.00 80 1017.9
20260504044558 20 157 8.0 19.3 0.00 0.00 0.00 70 1019.9
20260504044546 19 132 8.0 20.9 0.00 0.00 0.00 69 1017.0
20260504043100 20 140 9.7 20.9 0.00 0.00 0.00 68 1019.8
20260504043056 20 117 9.7 22.5 0.00 0.00 0.00 67 1016.9
20260504041604 20 146 9.7 22.5 0.00 0.00 0.00 67 1019.8
20260504041549 20 124 9.7 22.5 0.00 0.00 0.00 66 1017.0
20260504040056 20 147 9.7 22.5 0.00 0.00 0.00 65 1019.9
20260504040046 20 139 9.7 24.1 0.00 0.00 0.00 64 1017.1
20260504034613 21 148 9.7 22.5 0.00 0.00 0.00 64 1019.9
20260504034548 21 131 9.7 22.5 0.00 0.00 0.00 63 1017.0
20260504033056 21 151 8.0 20.9 0.00 0.00 0.00 63 1020.0
20260504033043 21 110 8.0 20.9 0.00 0.00 0.00 62 1017.0
20260504031556 21 166 8.0 14.5 0.00 0.00 0.00 62 1019.9
20260504031544 21 174 6.4 16.1 0.00 0.00 0.00 62 1017.0
20260504030054 20 124 6.4 14.5 0.00 0.00 0.00 61 1019.8
20260504030045 20 144 6.4 16.1 0.00 0.00 0.00 61 1016.8
20260504024555 20 84 8.0 14.5 0.00 0.00 0.00 60 1019.6
20260504024546 20 171 8.0 14.5 0.00 0.00 0.00 59 1016.7
20260504023054 20 113 3.2 6.4 0.00 0.00 0.00 58 1019.6
20260504023043 20 113 3.2 6.4 0.00 0.00 0.00 58 1016.7
20260504021554 21 113 1.6 6.4 0.00 0.00 0.00 57 1019.7
20260504021541 21 114 1.6 6.4 0.00 0.00 0.00 56 1016.7
20260504020110 21 126 3.2 6.4 0.00 0.00 0.00 55 1019.6
20260504020044 21 126 3.2 6.4 0.00 0.00 0.00 55 1016.6
20260504014558 22 129 1.6 4.8 0.00 0.00 0.00 53 1019.5
20260504014543 22 129 1.6 6.4 0.00 0.00 0.00 53 1016.5
20260504013111 22 88 3.2 11.3 0.00 0.00 0.00 52 1019.2
20260504013101 22 88 3.2 11.3 0.00 0.00 0.00 51 1016.1
20260504011552 23 125 4.8 11.3 0.00 0.00 0.00 49 1019.2
20260504011543 23 159 4.8 11.3 0.00 0.00 0.00 48 1016.1
20260504010051 23 144 6.4 12.9 0.00 0.00 0.00 48 1019.2
20260504010043 23 106 6.4 12.9 0.00 0.00 0.00 48 1016.2
20260504004551 23 174 4.8 14.5 0.00 0.00 0.00 47 1019.2
20260504004541 23 174 4.8 16.1 0.00 0.00 0.00 47 1016.1
20260504003049 23 140 8.0 16.1 0.00 0.00 0.00 47 1019.3
20260504003039 23 144 8.0 19.3 0.00 0.00 0.00 46 1016.2
20260504001551 24 148 6.4 14.5 0.00 0.00 0.00 48 1019.2
20260504001547 24 163 6.4 14.5 0.00 0.00 0.00 47 1016.3
20260504000046 24 132 6.4 17.7 0.00 0.00 0.00 47 1019.4
20260504000041 24 126 4.8 22.5 0.00 0.00 0.00 48 1016.3
20260503234546 24 183 8.0 17.7 0.00 0.00 0.00 47 1019.5
20260503234543 24 167 6.4 17.7 0.00 0.00 0.00 46 1016.5
20260503233050 24 142 11.3 22.5 0.00 0.00 0.00 45 1016.7
20260503233045 24 146 11.3 22.5 0.00 0.00 0.00 46 1019.7
20260503231543 25 148 11.3 19.3 0.00 0.00 0.00 45 1019.8
20260503230044 25 102 11.3 20.9 0.00 0.00 0.00 44 1017.0
20260503224542 25 142 6.4 20.9 0.00 0.00 0.00 42 1016.9
20260503223044 25 178 11.3 24.1 0.00 0.00 0.00 43 1017.0
20260503223041 25 178 11.3 24.1 0.00 0.00 0.00 43 1019.9
20260503221558 25 124 6.4 22.5 0.00 0.00 0.00 42 1017.3
20260503221536 25 165 9.7 22.5 0.00 0.00 0.00 42 1020.3
20260503220050 25 126 8.0 25.7 0.00 0.00 0.00 41 1017.5
20260503220035 25 126 9.7 24.1 0.00 0.00 0.00 42 1020.6
20260503214545 25 173 8.0 22.5 0.00 0.00 0.00 44 1017.8
20260503214539 25 173 6.4 22.5 0.00 0.00 0.00 45 1020.8
20260503213047 26 190 8.0 30.6 0.00 0.00 0.00 41 1018.2
20260503213030 26 190 8.0 17.7 0.00 0.00 0.00 41 1021.2
20260503211544 26 163 9.7 20.9 0.00 0.00 0.00 42 1018.3
20260503211528 26 163 9.7 19.3 0.00 0.00 0.00 43 1021.5
20260503210042 25 236 3.2 16.1 0.00 0.00 0.00 45 1018.4
20260503210026 25 215 3.2 16.1 0.00 0.00 0.00 45 1021.7
20260503204549 25 185 4.8 19.3 0.00 0.00 0.00 41 1018.8
20260503204525 25 151 4.8 19.3 0.00 0.00 0.00 42 1022.0
20260503203047 25 142 8.0 19.3 0.00 0.00 0.00 44 1019.3
20260503203032 25 133 8.0 17.7 0.00 0.00 0.00 44 1022.5
20260503201549 25 149 8.0 22.5 0.00 0.00 0.00 45 1019.5
20260503201520 25 126 9.7 22.5 0.00 0.00 0.00 45 1022.7
20260503200046 25 131 8.0 19.3 0.00 0.00 0.00 46 1019.6
20260503200019 25 164 8.0 19.3 0.00 0.00 0.00 46 1022.9
20260503194546 25 173 6.4 17.7 0.00 0.00 0.00 48 1020.0
20260503194516 25 159 4.8 17.7 0.00 0.00 0.00 45 1023.2
20260503193047 25 175 4.8 22.5 0.00 0.00 0.00 46 1020.2
20260503193030 25 175 3.2 16.1 0.00 0.00 0.00 46 1023.5
20260503191607 25 139 8.0 20.9 0.00 0.00 0.00 45 1020.1
20260503191529 25 198 6.4 19.3 0.00 0.00 0.00 44 1023.4
20260503190042 25 196 8.0 19.3 0.00 0.00 0.00 46 1020.5
20260503190014 25 167 8.0 19.3 0.00 0.00 0.00 46 1023.7
20260503184544 24 88 8.0 16.1 0.00 0.00 0.00 49 1020.6
20260503184506 24 128 9.7 16.1 0.00 0.00 0.00 48 1023.9
20260503183042 24 128 6.4 24.1 0.00 0.00 0.00 51 1020.9
20260503183006 24 150 8.0 24.1 0.00 0.00 0.00 50 1024.2
20260503181550 24 119 8.0 19.3 0.00 0.00 0.00 49 1021.3
20260503181506 24 58 8.0 14.5 0.00 0.00 0.00 50 1024.6
20260503180049 24 279 3.2 16.1 0.00 0.00 0.00 49 1021.5
20260503180005 24 205 3.2 14.5 0.00 0.00 0.00 50 1024.8
20260503174548 24 170 4.8 14.5 0.00 0.00 0.00 49 1021.9
20260503174501 24 140 4.8 14.5 0.00 0.00 0.00 49 1025.2
20260503173105 23 180 12.9 22.5 0.00 0.00 0.00 52 1025.3
20260503173045 23 121 12.9 22.5 0.00 0.00 0.00 51 1022.1
20260503171559 23 132 9.7 17.7 0.00 0.00 0.00 51 1025.7
20260503171545 23 146 8.0 17.7 0.00 0.00 0.00 51 1022.4
20260503170117 23 126 6.4 16.1 0.00 0.00 0.00 53 1025.8
20260503170103 23 177 4.8 16.1 0.00 0.00 0.00 52 1022.6
20260503160105 22 181 4.8 14.5 0.00 0.00 0.00 56 1026.3